Time,TemperatureF,DewpointF,PressureIn,WindDirection,WindDirectionDegrees,WindSpeedMPH,WindSpeedGustMPH,Humidity,HourlyPrecipIn,Conditions,Clouds,dailyrainin,SoftwareType,DateUTC
2013-04-02 00:03:00,76.0,-99.9,-100.00,NW,320,1.0,4.0,-999,-99.99,,,-99.99,,2013-04-02 06:03:00,
2013-04-02 00:12:00,76.0,-99.9,-100.00,NW,320,1.0,4.0,-999,-99.99,,,-99.99,,2013-04-02 06:12:00,
2013-04-02 02:02:00,73.0,-99.9,-100.00,NW,310,2.0,2.0,-999,-99.99,,,-99.99,,2013-04-02 08:02:00,
2013-04-02 02:14:00,73.0,-99.9,-100.00,NW,310,2.0,2.0,-999,-99.99,,,-99.99,,2013-04-02 08:14:00,
2013-04-02 03:30:00,61.0,-99.9,-100.00,NNE,33,4.0,5.0,-999,-99.99,,,-99.99,,2013-04-02 09:30:00,
2013-04-02 04:04:00,62.0,-99.9,-100.00,SE,125,3.0,3.0,-999,-99.99,,,-99.99,,2013-04-02 10:04:00,
2013-04-02 04:13:00,62.0,-99.9,-100.00,SE,125,3.0,3.0,-999,-99.99,,,-99.99,,2013-04-02 10:13:00,
2013-04-02 04:24:00,61.0,-99.9,-100.00,NNE,33,4.0,5.0,-999,-99.99,,,-99.99,,2013-04-02 10:24:00,
2013-04-02 04:50:00,62.0,-99.9,-100.00,SW,219,3.0,4.0,-999,-99.99,,,-99.99,,2013-04-02 10:50:00,
2013-04-02 05:23:00,62.0,-99.9,-100.00,NNE,30,4.0,5.0,-999,-99.99,,,-99.99,,2013-04-02 11:23:00,
2013-04-02 05:33:00,62.0,-99.9,-100.00,SW,219,3.0,4.0,-999,-99.99,,,-99.99,,2013-04-02 11:33:00,
2013-04-02 05:43:00,62.0,-99.9,-100.00,SW,219,3.0,4.0,-999,-99.99,,,-99.99,,2013-04-02 11:43:00,
2013-04-02 07:33:00,58.0,-99.9,-100.00,ESE,117,1.0,2.0,-999,-99.99,,,-99.99,,2013-04-02 13:33:00,
2013-04-02 07:43:00,58.0,-99.9,-100.00,ESE,117,1.0,2.0,-999,-99.99,,,-99.99,,2013-04-02 13:43:00,
2013-04-02 07:53:00,57.0,-99.9,-100.00,ENE,58,3.0,6.0,-999,-99.99,,,-99.99,,2013-04-02 13:53:00,
2013-04-02 08:02:00,57.0,-99.9,-100.00,ENE,58,3.0,6.0,-999,-99.99,,,-99.99,,2013-04-02 14:02:00,
2013-04-02 09:00:00,71.0,-99.9,-100.00,ENE,59,1.0,4.0,-999,-99.99,,,-99.99,,2013-04-02 15:00:00,
2013-04-02 09:58:00,71.0,-99.9,-100.00,ENE,59,1.0,4.0,-999,-99.99,,,-99.99,,2013-04-02 15:58:00,
2013-04-02 10:54:00,77.0,-99.9,-100.00,West,259,2.0,4.0,-999,-99.99,,,-99.99,,2013-04-02 16:54:00,
2013-04-02 11:07:00,77.0,-99.9,-100.00,West,259,2.0,4.0,-999,-99.99,,,-99.99,,2013-04-02 17:07:00,
2013-04-02 11:14:00,77.0,-99.9,-100.00,West,259,2.0,4.0,-999,-99.99,,,-99.99,,2013-04-02 17:14:00,
2013-04-02 12:58:00,77.0,-99.9,-100.00,West,269,2.0,9.0,-999,-99.99,,,-99.99,,2013-04-02 18:58:00,
2013-04-02 13:03:00,77.0,-99.9,-100.00,West,269,2.0,9.0,-999,-99.99,,,-99.99,,2013-04-02 19:03:00,
2013-04-02 14:05:00,80.0,-99.9,-100.00,West,269,3.0,9.0,-999,-99.99,,,-99.99,,2013-04-02 20:05:00,
2013-04-02 14:55:00,80.0,-99.9,-100.00,West,269,3.0,9.0,-999,-99.99,,,-99.99,,2013-04-02 20:55:00,
2013-04-02 16:34:00,81.0,-99.9,-100.00,NW,306,5.0,7.0,-999,-99.99,,,-99.99,,2013-04-02 22:34:00,
2013-04-02 16:44:00,81.0,-99.9,-100.00,NW,306,5.0,7.0,-999,-99.99,,,-99.99,,2013-04-02 22:44:00,
2013-04-02 17:03:00,82.0,-99.9,-100.00,WSW,254,5.0,10.0,-999,-99.99,,,-99.99,,2013-04-02 23:03:00,
2013-04-02 17:13:00,82.0,-99.9,-100.00,WSW,254,5.0,10.0,-999,-99.99,,,-99.99,,2013-04-02 23:13:00,
2013-04-02 17:24:00,82.0,-99.9,-100.00,WSW,254,5.0,10.0,-999,-99.99,,,-99.99,,2013-04-02 23:24:00,
2013-04-02 17:45:00,82.0,-99.9,-100.00,West,261,3.0,9.0,-999,-99.99,,,-99.99,,2013-04-02 23:45:00,
2013-04-02 18:34:00,82.0,-99.9,-100.00,West,261,3.0,9.0,-999,-99.99,,,-99.99,,2013-04-03 00:34:00,
2013-04-02 19:54:00,76.0,-99.9,-100.00,West,278,2.0,11.0,-999,-99.99,,,-99.99,,2013-04-03 01:54:00,
2013-04-02 20:04:00,76.0,-99.9,-100.00,West,278,2.0,11.0,-999,-99.99,,,-99.99,,2013-04-03 02:04:00,
2013-04-02 20:14:00,76.0,-99.9,-100.00,West,278,2.0,11.0,-999,-99.99,,,-99.99,,2013-04-03 02:14:00,
2013-04-02 22:03:00,73.0,-99.9,-100.00,WNW,297,6.0,10.0,-999,-99.99,,,-99.99,,2013-04-03 04:03:00,
2013-04-02 22:13:00,73.0,-99.9,-100.00,WNW,297,6.0,10.0,-999,-99.99,,,-99.99,,2013-04-03 04:13:00,
2013-04-02 22:40:00,70.0,-99.9,-100.00,NW,309,4.0,7.0,-999,-99.99,,,-99.99,,2013-04-03 04:40:00,
2013-04-02 23:23:00,70.0,-99.9,-100.00,NW,309,4.0,7.0,-999,-99.99,,,-99.99,,2013-04-03 05:23:00,
2013-04-02 23:33:00,70.0,-99.9,-100.00,NW,309,4.0,7.0,-999,-99.99,,,-99.99,,2013-04-03 05:33:00,